owner,sensor,date,latitude,longitude,sea_water_turbidity,qcFlag 
FWRI,ioos:station:FWRI:NPD:2,2013-01-01T00:59:00Z,27.3338,-82.5794,4.4,1111122 
FWRI,ioos:station:FWRI:NPD:2,2013-01-01T01:59:00Z,27.3338,-82.5794,4.5,1111122 
FWRI,ioos:station:FWRI:NPD:2,2013-01-01T06:59:00Z,27.3338,-82.5794,4.5,1111122 
FWRI,ioos:station:FWRI:NPD:2,2013-01-01T07:59:00Z,27.3338,-82.5794,4.5,1111122 
FWRI,ioos:station:FWRI:NPD:2,2013-01-01T08:59:00Z,27.3338,-82.5794,3.6,1111122 
FWRI,ioos:station:FWRI:NPD:2,2013-01-01T09:59:00Z,27.3338,-82.5794,4.1,1111122 
FWRI,ioos:station:FWRI:NPD:2,2013-01-01T10:59:00Z,27.3338,-82.5794,3.4,1111122 
FWRI,ioos:station:FWRI:NPD:2,2013-01-01T11:59:00Z,27.3338,-82.5794,3.8,1111122 
FWRI,ioos:station:FWRI:NPD:2,2013-01-01T12:59:00Z,27.3338,-82.5794,3.6,1111122 
FWRI,ioos:station:FWRI:NPD:2,2013-01-01T13:59:00Z,27.3338,-82.5794,4.0,1111122 
FWRI,ioos:station:FWRI:NPD:2,2013-01-01T14:59:00Z,27.3338,-82.5794,3.3,1111122 
FWRI,ioos:station:FWRI:NPD:2,2013-01-01T15:59:00Z,27.3338,-82.5794,3.4,1111122 
FWRI,ioos:station:FWRI:NPD:2,2013-01-01T16:59:00Z,27.3338,-82.5794,2.6,1111122 
FWRI,ioos:station:FWRI:NPD:2,2013-01-01T17:59:00Z,27.3338,-82.5794,4.3,1111122 
FWRI,ioos:station:FWRI:NPD:2,2013-01-01T18:59:00Z,27.3338,-82.5794,4.6,1111122 
FWRI,ioos:station:FWRI:NPD:2,2013-01-01T19:59:00Z,27.3338,-82.5794,4.4,1111122 
FWRI,ioos:station:FWRI:NPD:2,2013-01-01T23:59:00Z,27.3338,-82.5794,2.7,1111122 
FWRI,ioos:station:FWRI:NPD:2,2013-01-02T00:59:00Z,27.3338,-82.5794,2.7,1111122 
FWRI,ioos:station:FWRI:NPD:2,2013-01-02T01:59:00Z,27.3338,-82.5794,2.9,1111122 
FWRI,ioos:station:FWRI:NPD:2,2013-01-02T02:59:00Z,27.3338,-82.5794,2.7,1111122 
FWRI,ioos:station:FWRI:NPD:2,2013-01-02T03:59:00Z,27.3338,-82.5794,2.6,1111122 
FWRI,ioos:station:FWRI:NPD:2,2013-01-02T04:59:00Z,27.3338,-82.5794,3.0,1111122 
FWRI,ioos:station:FWRI:NPD:2,2013-01-02T05:59:00Z,27.3338,-82.5794,2.5,1111122 
FWRI,ioos:station:FWRI:NPD:2,2013-01-02T06:59:00Z,27.3338,-82.5794,2.7,1111122 
FWRI,ioos:station:FWRI:NPD:2,2013-01-02T07:59:00Z,27.3338,-82.5794,1.8,1111122 
FWRI,ioos:station:FWRI:NPD:2,2013-01-02T08:59:00Z,27.3338,-82.5794,2.0,1111122 
FWRI,ioos:station:FWRI:NPD:2,2013-01-02T09:59:00Z,27.3338,-82.5794,1.0,1111122 
FWRI,ioos:station:FWRI:NPD:2,2013-01-02T10:59:00Z,27.3338,-82.5794,1.8,1111122 
FWRI,ioos:station:FWRI:NPD:2,2013-01-02T11:59:00Z,27.3338,-82.5794,1.8,1111122 
FWRI,ioos:station:FWRI:NPD:2,2013-01-02T12:59:00Z,27.3338,-82.5794,2.1,1111122 
FWRI,ioos:station:FWRI:NPD:2,2013-01-02T13:59:00Z,27.3338,-82.5794,4.2,1111122 
FWRI,ioos:station:FWRI:NPD:2,2013-01-02T14:59:00Z,27.3338,-82.5794,2.1,1111122 
FWRI,ioos:station:FWRI:NPD:2,2013-01-02T15:59:00Z,27.3338,-82.5794,2.2,1111122 
FWRI,ioos:station:FWRI:NPD:2,2013-01-02T16:59:00Z,27.3338,-82.5794,2.1,1111122 
FWRI,ioos:station:FWRI:NPD:2,2013-01-02T17:59:00Z,27.3338,-82.5794,2.4,1111122 
FWRI,ioos:station:FWRI:NPD:2,2013-01-02T18:59:00Z,27.3338,-82.5794,2.7,1111122 
FWRI,ioos:station:FWRI:NPD:2,2013-01-02T19:59:00Z,27.3338,-82.5794,3.0,1111122 
FWRI,ioos:station:FWRI:NPD:2,2013-01-02T20:59:00Z,27.3338,-82.5794,2.4,1111122 
FWRI,ioos:station:FWRI:NPD:2,2013-01-03T11:59:00Z,27.3338,-82.5794,2.9,1111122 
FWRI,ioos:station:FWRI:NPD:2,2013-01-06T13:59:00Z,27.3338,-82.5794,34.1,1111122 
FWRI,ioos:station:FWRI:NPD:2,2013-01-08T16:59:00Z,27.3338,-82.5794,43.8,1111122 
FWRI,ioos:station:FWRI:NPD:2,2013-01-08T17:59:00Z,27.3338,-82.5794,29.9,1111122 
FWRI,ioos:station:FWRI:NPD:2,2013-01-17T23:59:00Z,27.3338,-82.5794,1.9,1111122 
FWRI,ioos:station:FWRI:NPD:2,2013-01-18T00:59:00Z,27.3338,-82.5794,4.4,1111122 
FWRI,ioos:station:FWRI:NPD:2,2013-01-18T01:59:00Z,27.3338,-82.5794,5.6,1111122 
FWRI,ioos:station:FWRI:NPD:2,2013-01-18T02:59:00Z,27.3338,-82.5794,3.8,1111122 
FWRI,ioos:station:FWRI:NPD:2,2013-01-18T03:59:00Z,27.3338,-82.5794,4.1,1111122 
FWRI,ioos:station:FWRI:NPD:2,2013-01-18T04:59:00Z,27.3338,-82.5794,3.2,1111122 
FWRI,ioos:station:FWRI:NPD:2,2013-01-18T05:59:00Z,27.3338,-82.5794,3.8,1111122 
FWRI,ioos:station:FWRI:NPD:2,2013-01-18T06:59:00Z,27.3338,-82.5794,2.6,1111122 
FWRI,ioos:station:FWRI:NPD:2,2013-01-18T07:59:00Z,27.3338,-82.5794,2.3,1111122 
FWRI,ioos:station:FWRI:NPD:2,2013-01-18T08:59:00Z,27.3338,-82.5794,2.3,1111122 
FWRI,ioos:station:FWRI:NPD:2,2013-01-18T09:59:00Z,27.3338,-82.5794,2.7,1111122 
FWRI,ioos:station:FWRI:NPD:2,2013-01-18T10:59:00Z,27.3338,-82.5794,2.0,1111122 
FWRI,ioos:station:FWRI:NPD:2,2013-01-18T11:59:00Z,27.3338,-82.5794,1.6,1111122 
FWRI,ioos:station:FWRI:NPD:2,2013-01-18T12:59:00Z,27.3338,-82.5794,1.5,1111122 
FWRI,ioos:station:FWRI:NPD:2,2013-01-18T13:59:00Z,27.3338,-82.5794,1.6,1111122 
FWRI,ioos:station:FWRI:NPD:2,2013-01-18T14:59:00Z,27.3338,-82.5794,1.1,1111122 
FWRI,ioos:station:FWRI:NPD:2,2013-01-18T15:59:00Z,27.3338,-82.5794,0.6,1111122 
FWRI,ioos:station:FWRI:NPD:2,2013-01-18T16:59:00Z,27.3338,-82.5794,1.2,1111122 
FWRI,ioos:station:FWRI:NPD:2,2013-01-18T17:59:00Z,27.3338,-82.5794,3.4,1111122 
FWRI,ioos:station:FWRI:NPD:2,2013-01-18T18:59:00Z,27.3338,-82.5794,4.6,1111122 
FWRI,ioos:station:FWRI:NPD:2,2013-01-18T19:59:00Z,27.3338,-82.5794,5.0,1111122 
FWRI,ioos:station:FWRI:NPD:2,2013-01-18T20:59:00Z,27.3338,-82.5794,3.5,1111122 
FWRI,ioos:station:FWRI:NPD:2,2013-01-18T21:59:00Z,27.3338,-82.5794,2.9,1111122 
FWRI,ioos:station:FWRI:NPD:2,2013-01-18T22:59:00Z,27.3338,-82.5794,2.6,1111122 
FWRI,ioos:station:FWRI:NPD:2,2013-01-18T23:59:00Z,27.3338,-82.5794,1.8,1111122 
FWRI,ioos:station:FWRI:NPD:2,2013-01-19T00:59:00Z,27.3338,-82.5794,1.9,1111122 
FWRI,ioos:station:FWRI:NPD:2,2013-01-19T01:59:00Z,27.3338,-82.5794,1.5,1111122 
FWRI,ioos:station:FWRI:NPD:2,2013-01-19T02:59:00Z,27.3338,-82.5794,1.2,1111122 
FWRI,ioos:station:FWRI:NPD:2,2013-01-19T03:59:00Z,27.3338,-82.5794,0.8,1111122 
FWRI,ioos:station:FWRI:NPD:2,2013-01-19T04:59:00Z,27.3338,-82.5794,1.3,1111122 
FWRI,ioos:station:FWRI:NPD:2,2013-01-19T05:59:00Z,27.3338,-82.5794,0.7,1111122 
FWRI,ioos:station:FWRI:NPD:2,2013-01-19T06:59:00Z,27.3338,-82.5794,0.3,1111122 
FWRI,ioos:station:FWRI:NPD:2,2013-01-19T08:59:00Z,27.3338,-82.5794,0.3,1111122 
FWRI,ioos:station:FWRI:NPD:2,2013-01-19T09:59:00Z,27.3338,-82.5794,0.5,1111122 
FWRI,ioos:station:FWRI:NPD:2,2013-01-19T10:59:00Z,27.3338,-82.5794,0.6,1111122 
FWRI,ioos:station:FWRI:NPD:2,2013-01-19T11:59:00Z,27.3338,-82.5794,1.3,1111122 
FWRI,ioos:station:FWRI:NPD:2,2013-01-19T12:59:00Z,27.3338,-82.5794,1.3,1111122 
FWRI,ioos:station:FWRI:NPD:2,2013-01-19T13:59:00Z,27.3338,-82.5794,1.0,1111122 
FWRI,ioos:station:FWRI:NPD:2,2013-01-19T14:59:00Z,27.3338,-82.5794,0.8,1111122 
FWRI,ioos:station:FWRI:NPD:2,2013-01-19T15:59:00Z,27.3338,-82.5794,0.9,1111122 
FWRI,ioos:station:FWRI:NPD:2,2013-01-19T16:59:00Z,27.3338,-82.5794,1.3,1111122 
FWRI,ioos:station:FWRI:NPD:2,2013-01-19T17:59:00Z,27.3338,-82.5794,1.8,1111122 
FWRI,ioos:station:FWRI:NPD:2,2013-01-19T18:59:00Z,27.3338,-82.5794,1.8,1111122 
FWRI,ioos:station:FWRI:NPD:2,2013-01-19T19:59:00Z,27.3338,-82.5794,2.3,1111122 
FWRI,ioos:station:FWRI:NPD:2,2013-01-19T20:59:00Z,27.3338,-82.5794,1.3,1111122 
FWRI,ioos:station:FWRI:NPD:2,2013-01-19T21:59:00Z,27.3338,-82.5794,0.4,1111122 
FWRI,ioos:station:FWRI:NPD:2,2013-01-19T22:59:00Z,27.3338,-82.5794,0.2,1111122 
FWRI,ioos:station:FWRI:NPD:2,2013-01-19T23:59:00Z,27.3338,-82.5794,0.4,1111122 
FWRI,ioos:station:FWRI:NPD:2,2013-01-20T00:59:00Z,27.3338,-82.5794,0.8,1111122 
FWRI,ioos:station:FWRI:NPD:2,2013-01-20T07:59:00Z,27.3338,-82.5794,0.1,1111122 
FWRI,ioos:station:FWRI:NPD:2,2013-01-22T04:59:00Z,27.3338,-82.5794,0.1,1111122 
FWRI,ioos:station:FWRI:NPD:2,2013-01-22T08:59:00Z,27.3338,-82.5794,0.1,1111122 
FWRI,ioos:station:FWRI:NPD:2,2013-01-22T15:59:00Z,27.3338,-82.5794,0.2,1111122 
FWRI,ioos:station:FWRI:NPD:2,2013-01-22T16:59:00Z,27.3338,-82.5794,0.6,1111122 
FWRI,ioos:station:FWRI:NPD:2,2013-01-22T17:59:00Z,27.3338,-82.5794,0.1,1111122 
FWRI,ioos:station:FWRI:NPD:2,2013-01-22T21:59:00Z,27.3338,-82.5794,0.5,1111122 
FWRI,ioos:station:FWRI:NPD:2,2013-01-22T22:59:00Z,27.3338,-82.5794,0.8,1111122 
FWRI,ioos:station:FWRI:NPD:2,2013-01-22T23:59:00Z,27.3338,-82.5794,0.9,1111122 
FWRI,ioos:station:FWRI:NPD:2,2013-01-23T00:59:00Z,27.3338,-82.5794,0.7,1111122 
FWRI,ioos:station:FWRI:NPD:2,2013-01-23T01:59:00Z,27.3338,-82.5794,0.2,1111122 
FWRI,ioos:station:FWRI:NPD:2,2013-01-23T03:59:00Z,27.3338,-82.5794,0.3,1111122 
FWRI,ioos:station:FWRI:NPD:2,2013-01-23T05:59:00Z,27.3338,-82.5794,0.3,1111122 
FWRI,ioos:station:FWRI:NPD:2,2013-01-23T06:59:00Z,27.3338,-82.5794,0.3,1111122 
FWRI,ioos:station:FWRI:NPD:2,2013-01-23T07:59:00Z,27.3338,-82.5794,0.1,1111122 
FWRI,ioos:station:FWRI:NPD:2,2013-01-23T08:59:00Z,27.3338,-82.5794,0.3,1111122 
FWRI,ioos:station:FWRI:NPD:2,2013-01-23T09:59:00Z,27.3338,-82.5794,0.1,1111122 
FWRI,ioos:station:FWRI:NPD:2,2013-01-23T10:59:00Z,27.3338,-82.5794,0.4,1111122 
FWRI,ioos:station:FWRI:NPD:2,2013-01-23T11:59:00Z,27.3338,-82.5794,0.1,1111122 
FWRI,ioos:station:FWRI:NPD:2,2013-01-23T12:59:00Z,27.3338,-82.5794,0.2,1111122 
FWRI,ioos:station:FWRI:NPD:2,2013-01-23T14:59:00Z,27.3338,-82.5794,0.3,1111122 
FWRI,ioos:station:FWRI:NPD:2,2013-01-23T15:59:00Z,27.3338,-82.5794,0.1,1111122 
FWRI,ioos:station:FWRI:NPD:2,2013-01-23T20:59:00Z,27.3338,-82.5794,0.1,1111122 
FWRI,ioos:station:FWRI:NPD:2,2013-01-23T21:59:00Z,27.3338,-82.5794,2.0,1111122 
FWRI,ioos:station:FWRI:NPD:2,2013-01-23T22:59:00Z,27.3338,-82.5794,2.3,1111122 
FWRI,ioos:station:FWRI:NPD:2,2013-01-23T23:59:00Z,27.3338,-82.5794,2.9,1111122 
FWRI,ioos:station:FWRI:NPD:2,2013-01-24T00:59:00Z,27.3338,-82.5794,2.9,1111122 
FWRI,ioos:station:FWRI:NPD:2,2013-01-24T01:59:00Z,27.3338,-82.5794,2.5,1111122 
FWRI,ioos:station:FWRI:NPD:2,2013-01-24T02:59:00Z,27.3338,-82.5794,2.6,1111122 
FWRI,ioos:station:FWRI:NPD:2,2013-01-24T03:59:00Z,27.3338,-82.5794,2.4,1111122 
FWRI,ioos:station:FWRI:NPD:2,2013-01-24T04:59:00Z,27.3338,-82.5794,3.0,1111122 
FWRI,ioos:station:FWRI:NPD:2,2013-01-24T05:59:00Z,27.3338,-82.5794,3.1,1111122 
FWRI,ioos:station:FWRI:NPD:2,2013-01-24T06:59:00Z,27.3338,-82.5794,3.7,1111122 
FWRI,ioos:station:FWRI:NPD:2,2013-01-24T07:59:00Z,27.3338,-82.5794,3.4,1111122 
FWRI,ioos:station:FWRI:NPD:2,2013-01-24T08:59:00Z,27.3338,-82.5794,4.8,1111122 
FWRI,ioos:station:FWRI:NPD:2,2013-01-24T09:59:00Z,27.3338,-82.5794,4.4,1111122 
FWRI,ioos:station:FWRI:NPD:2,2013-01-24T10:59:00Z,27.3338,-82.5794,5.2,1111122 
FWRI,ioos:station:FWRI:NPD:2,2013-01-24T11:59:00Z,27.3338,-82.5794,4.9,1111122 
FWRI,ioos:station:FWRI:NPD:2,2013-01-24T12:59:00Z,27.3338,-82.5794,3.3,1111122 
FWRI,ioos:station:FWRI:NPD:2,2013-01-24T13:59:00Z,27.3338,-82.5794,3.2,1111122 
FWRI,ioos:station:FWRI:NPD:2,2013-01-24T14:59:00Z,27.3338,-82.5794,2.7,1111122 
FWRI,ioos:station:FWRI:NPD:2,2013-01-24T15:59:00Z,27.3338,-82.5794,1.9,1111122 
FWRI,ioos:station:FWRI:NPD:2,2013-01-24T16:59:00Z,27.3338,-82.5794,1.2,1111122 
FWRI,ioos:station:FWRI:NPD:2,2013-01-24T17:59:00Z,27.3338,-82.5794,0.9,1111122 
FWRI,ioos:station:FWRI:NPD:2,2013-01-24T18:59:00Z,27.3338,-82.5794,0.9,1111122 
FWRI,ioos:station:FWRI:NPD:2,2013-01-24T19:59:00Z,27.3338,-82.5794,1.3,1111122 
FWRI,ioos:station:FWRI:NPD:2,2013-01-24T20:59:00Z,27.3338,-82.5794,1.4,1111122 
FWRI,ioos:station:FWRI:NPD:2,2013-01-24T21:59:00Z,27.3338,-82.5794,1.7,1111122 
FWRI,ioos:station:FWRI:NPD:2,2013-01-24T22:59:00Z,27.3338,-82.5794,1.9,1111122 
FWRI,ioos:station:FWRI:NPD:2,2013-01-24T23:59:00Z,27.3338,-82.5794,1.6,1111122 
FWRI,ioos:station:FWRI:NPD:2,2013-01-25T00:59:00Z,27.3338,-82.5794,1.0,1111122 
FWRI,ioos:station:FWRI:NPD:2,2013-01-25T01:59:00Z,27.3338,-82.5794,0.9,1111122 
FWRI,ioos:station:FWRI:NPD:2,2013-01-25T02:59:00Z,27.3338,-82.5794,1.4,1111122 
FWRI,ioos:station:FWRI:NPD:2,2013-01-25T03:59:00Z,27.3338,-82.5794,1.7,1111122 
FWRI,ioos:station:FWRI:NPD:2,2013-01-25T04:59:00Z,27.3338,-82.5794,1.6,1111122 
FWRI,ioos:station:FWRI:NPD:2,2013-01-25T05:59:00Z,27.3338,-82.5794,1.3,1111122 
FWRI,ioos:station:FWRI:NPD:2,2013-01-25T06:59:00Z,27.3338,-82.5794,2.1,1111122 
FWRI,ioos:station:FWRI:NPD:2,2013-01-25T07:59:00Z,27.3338,-82.5794,3.0,1111122 
FWRI,ioos:station:FWRI:NPD:2,2013-01-25T08:59:00Z,27.3338,-82.5794,2.9,1111122 
FWRI,ioos:station:FWRI:NPD:2,2013-01-25T09:59:00Z,27.3338,-82.5794,3.6,1111122 
FWRI,ioos:station:FWRI:NPD:2,2013-01-25T10:59:00Z,27.3338,-82.5794,4.0,1111122 
FWRI,ioos:station:FWRI:NPD:2,2013-01-25T11:59:00Z,27.3338,-82.5794,4.0,1111122 
FWRI,ioos:station:FWRI:NPD:2,2013-01-25T12:59:00Z,27.3338,-82.5794,4.7,1111122 
FWRI,ioos:station:FWRI:NPD:2,2013-01-25T13:59:00Z,27.3338,-82.5794,3.5,1111122 
FWRI,ioos:station:FWRI:NPD:2,2013-01-25T14:59:00Z,27.3338,-82.5794,2.9,1111122 
FWRI,ioos:station:FWRI:NPD:2,2013-01-25T15:59:00Z,27.3338,-82.5794,1.9,1111122 
FWRI,ioos:station:FWRI:NPD:2,2013-01-25T16:59:00Z,27.3338,-82.5794,1.5,1111122 
FWRI,ioos:station:FWRI:NPD:2,2013-01-25T17:59:00Z,27.3338,-82.5794,1.0,1111122 
FWRI,ioos:station:FWRI:NPD:2,2013-01-25T18:59:00Z,27.3338,-82.5794,1.0,1111122 
FWRI,ioos:station:FWRI:NPD:2,2013-01-25T19:59:00Z,27.3338,-82.5794,0.8,1111122 
FWRI,ioos:station:FWRI:NPD:2,2013-01-25T20:59:00Z,27.3338,-82.5794,0.7,1111122 
FWRI,ioos:station:FWRI:NPD:2,2013-01-25T21:59:00Z,27.3338,-82.5794,0.7,1111122 
FWRI,ioos:station:FWRI:NPD:2,2013-01-25T22:59:00Z,27.3338,-82.5794,0.9,1111122 
FWRI,ioos:station:FWRI:NPD:2,2013-01-25T23:59:00Z,27.3338,-82.5794,0.7,1111122 
FWRI,ioos:station:FWRI:NPD:2,2013-01-26T00:59:00Z,27.3338,-82.5794,0.6,1111122 
FWRI,ioos:station:FWRI:NPD:2,2013-01-26T01:59:00Z,27.3338,-82.5794,0.6,1111122 
FWRI,ioos:station:FWRI:NPD:2,2013-01-26T02:59:00Z,27.3338,-82.5794,0.4,1111122 
FWRI,ioos:station:FWRI:NPD:2,2013-01-26T03:59:00Z,27.3338,-82.5794,0.5,1111122 
FWRI,ioos:station:FWRI:NPD:2,2013-01-26T04:59:00Z,27.3338,-82.5794,0.3,1111122 
FWRI,ioos:station:FWRI:NPD:2,2013-01-26T05:59:00Z,27.3338,-82.5794,0.5,1111122 
FWRI,ioos:station:FWRI:NPD:2,2013-01-26T06:59:00Z,27.3338,-82.5794,1.5,1111122 
FWRI,ioos:station:FWRI:NPD:2,2013-01-26T07:59:00Z,27.3338,-82.5794,1.3,1111122 
FWRI,ioos:station:FWRI:NPD:2,2013-01-26T08:59:00Z,27.3338,-82.5794,1.4,1111122 
FWRI,ioos:station:FWRI:NPD:2,2013-01-26T09:59:00Z,27.3338,-82.5794,1.9,1111122 
FWRI,ioos:station:FWRI:NPD:2,2013-01-26T10:59:00Z,27.3338,-82.5794,2.2,1111122 
FWRI,ioos:station:FWRI:NPD:2,2013-01-26T11:59:00Z,27.3338,-82.5794,2.6,1111122 
FWRI,ioos:station:FWRI:NPD:2,2013-01-26T12:59:00Z,27.3338,-82.5794,3.1,1111122 
FWRI,ioos:station:FWRI:NPD:2,2013-01-26T13:59:00Z,27.3338,-82.5794,3.1,1111122 
FWRI,ioos:station:FWRI:NPD:2,2013-01-26T14:59:00Z,27.3338,-82.5794,2.3,1111122 
FWRI,ioos:station:FWRI:NPD:2,2013-01-26T15:59:00Z,27.3338,-82.5794,1.9,1111122 
FWRI,ioos:station:FWRI:NPD:2,2013-01-26T16:59:00Z,27.3338,-82.5794,1.6,1111122 
FWRI,ioos:station:FWRI:NPD:2,2013-01-26T17:59:00Z,27.3338,-82.5794,0.8,1111122 
FWRI,ioos:station:FWRI:NPD:2,2013-01-26T18:59:00Z,27.3338,-82.5794,0.6,1111122 
FWRI,ioos:station:FWRI:NPD:2,2013-01-26T19:59:00Z,27.3338,-82.5794,0.9,1111122 
FWRI,ioos:station:FWRI:NPD:2,2013-01-26T20:59:00Z,27.3338,-82.5794,0.9,1111122 
FWRI,ioos:station:FWRI:NPD:2,2013-01-26T21:59:00Z,27.3338,-82.5794,1.4,1111122 
FWRI,ioos:station:FWRI:NPD:2,2013-01-26T22:59:00Z,27.3338,-82.5794,2.0,1111122 
FWRI,ioos:station:FWRI:NPD:2,2013-01-26T23:59:00Z,27.3338,-82.5794,2.2,1111122 
FWRI,ioos:station:FWRI:NPD:2,2013-01-27T00:59:00Z,27.3338,-82.5794,2.0,1111122 
FWRI,ioos:station:FWRI:NPD:2,2013-01-27T01:59:00Z,27.3338,-82.5794,1.1,1111122 
FWRI,ioos:station:FWRI:NPD:2,2013-01-27T02:59:00Z,27.3338,-82.5794,0.8,1111122 
FWRI,ioos:station:FWRI:NPD:2,2013-01-27T03:59:00Z,27.3338,-82.5794,0.7,1111122 
FWRI,ioos:station:FWRI:NPD:2,2013-01-27T04:59:00Z,27.3338,-82.5794,0.5,1111122 
FWRI,ioos:station:FWRI:NPD:2,2013-01-27T05:59:00Z,27.3338,-82.5794,0.4,1111122 
FWRI,ioos:station:FWRI:NPD:2,2013-01-27T06:59:00Z,27.3338,-82.5794,0.4,1111122 
FWRI,ioos:station:FWRI:NPD:2,2013-01-27T07:59:00Z,27.3338,-82.5794,0.5,1111122 
FWRI,ioos:station:FWRI:NPD:2,2013-01-27T08:59:00Z,27.3338,-82.5794,1.4,1111122 
FWRI,ioos:station:FWRI:NPD:2,2013-01-27T09:59:00Z,27.3338,-82.5794,3.2,1111122 
FWRI,ioos:station:FWRI:NPD:2,2013-01-27T10:59:00Z,27.3338,-82.5794,2.5,1111122 
FWRI,ioos:station:FWRI:NPD:2,2013-01-27T11:59:00Z,27.3338,-82.5794,3.0,1111122 
FWRI,ioos:station:FWRI:NPD:2,2013-01-27T12:59:00Z,27.3338,-82.5794,4.0,1111122 
FWRI,ioos:station:FWRI:NPD:2,2013-01-27T13:59:00Z,27.3338,-82.5794,3.2,1111122 
FWRI,ioos:station:FWRI:NPD:2,2013-01-27T14:59:00Z,27.3338,-82.5794,3.1,1111122 
FWRI,ioos:station:FWRI:NPD:2,2013-01-27T15:59:00Z,27.3338,-82.5794,2.2,1111122 
FWRI,ioos:station:FWRI:NPD:2,2013-01-27T16:59:00Z,27.3338,-82.5794,1.5,1111122 
FWRI,ioos:station:FWRI:NPD:2,2013-01-27T17:59:00Z,27.3338,-82.5794,1.4,1111122 
FWRI,ioos:station:FWRI:NPD:2,2013-01-27T18:59:00Z,27.3338,-82.5794,1.2,1111122 
FWRI,ioos:station:FWRI:NPD:2,2013-01-27T19:59:00Z,27.3338,-82.5794,0.9,1111122 
FWRI,ioos:station:FWRI:NPD:2,2013-01-27T20:59:00Z,27.3338,-82.5794,1.1,1111122 
FWRI,ioos:station:FWRI:NPD:2,2013-01-27T21:59:00Z,27.3338,-82.5794,1.1,1111122 
FWRI,ioos:station:FWRI:NPD:2,2013-01-27T22:59:00Z,27.3338,-82.5794,1.5,1111122 
FWRI,ioos:station:FWRI:NPD:2,2013-01-27T23:59:00Z,27.3338,-82.5794,2.1,1111122 
FWRI,ioos:station:FWRI:NPD:2,2013-01-28T00:59:00Z,27.3338,-82.5794,1.3,1111122 
FWRI,ioos:station:FWRI:NPD:2,2013-01-28T01:59:00Z,27.3338,-82.5794,0.9,1111122 
FWRI,ioos:station:FWRI:NPD:2,2013-01-28T02:59:00Z,27.3338,-82.5794,0.8,1111122 
FWRI,ioos:station:FWRI:NPD:2,2013-01-28T03:59:00Z,27.3338,-82.5794,0.6,1111122 
FWRI,ioos:station:FWRI:NPD:2,2013-01-28T04:59:00Z,27.3338,-82.5794,0.6,1111122 
FWRI,ioos:station:FWRI:NPD:2,2013-01-28T05:59:00Z,27.3338,-82.5794,0.7,1111122 
FWRI,ioos:station:FWRI:NPD:2,2013-01-28T06:59:00Z,27.3338,-82.5794,0.7,1111122 
FWRI,ioos:station:FWRI:NPD:2,2013-01-28T07:59:00Z,27.3338,-82.5794,1.0,1111122 
FWRI,ioos:station:FWRI:NPD:2,2013-01-28T08:59:00Z,27.3338,-82.5794,1.5,1111122 
FWRI,ioos:station:FWRI:NPD:2,2013-01-28T09:59:00Z,27.3338,-82.5794,1.6,1111122 
FWRI,ioos:station:FWRI:NPD:2,2013-01-28T10:59:00Z,27.3338,-82.5794,2.1,1111122 
FWRI,ioos:station:FWRI:NPD:2,2013-01-28T11:59:00Z,27.3338,-82.5794,2.1,1111122 
FWRI,ioos:station:FWRI:NPD:2,2013-01-28T12:59:00Z,27.3338,-82.5794,2.3,1111122 
FWRI,ioos:station:FWRI:NPD:2,2013-01-28T13:59:00Z,27.3338,-82.5794,2.1,1111122 
FWRI,ioos:station:FWRI:NPD:2,2013-01-28T14:59:00Z,27.3338,-82.5794,3.3,1111122 
FWRI,ioos:station:FWRI:NPD:2,2013-01-28T15:59:00Z,27.3338,-82.5794,2.3,1111122 
FWRI,ioos:station:FWRI:NPD:2,2013-01-28T16:59:00Z,27.3338,-82.5794,1.5,1111122 
FWRI,ioos:station:FWRI:NPD:2,2013-01-28T17:59:00Z,27.3338,-82.5794,1.0,1111122 
FWRI,ioos:station:FWRI:NPD:2,2013-01-28T18:59:00Z,27.3338,-82.5794,0.8,1111122 
FWRI,ioos:station:FWRI:NPD:2,2013-01-28T19:59:00Z,27.3338,-82.5794,0.7,1111122 
FWRI,ioos:station:FWRI:NPD:2,2013-01-28T20:59:00Z,27.3338,-82.5794,0.7,1111122 
FWRI,ioos:station:FWRI:NPD:2,2013-01-28T21:59:00Z,27.3338,-82.5794,1.2,1111122 
FWRI,ioos:station:FWRI:NPD:2,2013-01-28T22:59:00Z,27.3338,-82.5794,0.9,1111122 
FWRI,ioos:station:FWRI:NPD:2,2013-01-28T23:59:00Z,27.3338,-82.5794,0.8,1111122 
FWRI,ioos:station:FWRI:NPD:2,2013-01-29T00:59:00Z,27.3338,-82.5794,0.9,1111122 
FWRI,ioos:station:FWRI:NPD:2,2013-01-29T01:59:00Z,27.3338,-82.5794,0.8,1111122 
FWRI,ioos:station:FWRI:NPD:2,2013-01-29T02:59:00Z,27.3338,-82.5794,1.3,1111122 
FWRI,ioos:station:FWRI:NPD:2,2013-01-29T03:59:00Z,27.3338,-82.5794,0.7,1111122 
FWRI,ioos:station:FWRI:NPD:2,2013-01-29T04:59:00Z,27.3338,-82.5794,0.6,1111122 
FWRI,ioos:station:FWRI:NPD:2,2013-01-29T05:59:00Z,27.3338,-82.5794,0.5,1111122 
FWRI,ioos:station:FWRI:NPD:2,2013-01-29T06:59:00Z,27.3338,-82.5794,0.4,1111122 
FWRI,ioos:station:FWRI:NPD:2,2013-01-29T07:59:00Z,27.3338,-82.5794,0.6,1111122 
FWRI,ioos:station:FWRI:NPD:2,2013-01-29T08:59:00Z,27.3338,-82.5794,0.9,1111122 
FWRI,ioos:station:FWRI:NPD:2,2013-01-29T09:59:00Z,27.3338,-82.5794,1.2,1111122 
FWRI,ioos:station:FWRI:NPD:2,2013-01-29T10:59:00Z,27.3338,-82.5794,1.3,1111122 
FWRI,ioos:station:FWRI:NPD:2,2013-01-29T11:59:00Z,27.3338,-82.5794,1.8,1111122 
FWRI,ioos:station:FWRI:NPD:2,2013-01-29T12:59:00Z,27.3338,-82.5794,1.8,1111122 
FWRI,ioos:station:FWRI:NPD:2,2013-01-29T13:59:00Z,27.3338,-82.5794,2.0,1111122 
FWRI,ioos:station:FWRI:NPD:2,2013-01-29T14:59:00Z,27.3338,-82.5794,2.4,1111122 
FWRI,ioos:station:FWRI:NPD:2,2013-01-29T15:59:00Z,27.3338,-82.5794,1.9,1111122 
FWRI,ioos:station:FWRI:NPD:2,2013-01-29T16:59:00Z,27.3338,-82.5794,2.6,1111122 
FWRI,ioos:station:FWRI:NPD:2,2013-01-29T17:59:00Z,27.3338,-82.5794,1.5,1111122 
FWRI,ioos:station:FWRI:NPD:2,2013-01-29T18:59:00Z,27.3338,-82.5794,1.0,1111122 
FWRI,ioos:station:FWRI:NPD:2,2013-01-29T19:59:00Z,27.3338,-82.5794,0.9,1111122 
FWRI,ioos:station:FWRI:NPD:2,2013-01-29T20:59:00Z,27.3338,-82.5794,0.9,1111122 
FWRI,ioos:station:FWRI:NPD:2,2013-01-29T21:59:00Z,27.3338,-82.5794,0.8,1111122 
FWRI,ioos:station:FWRI:NPD:2,2013-01-29T22:59:00Z,27.3338,-82.5794,1.0,1111122 
FWRI,ioos:station:FWRI:NPD:2,2013-01-29T23:59:00Z,27.3338,-82.5794,1.2,1111122 
FWRI,ioos:station:FWRI:NPD:2,2013-01-30T00:59:00Z,27.3338,-82.5794,1.8,1111122 
FWRI,ioos:station:FWRI:NPD:2,2013-01-30T01:59:00Z,27.3338,-82.5794,2.0,1111122 
FWRI,ioos:station:FWRI:NPD:2,2013-01-30T02:59:00Z,27.3338,-82.5794,1.7,1111122 
FWRI,ioos:station:FWRI:NPD:2,2013-01-30T03:59:00Z,27.3338,-82.5794,1.3,1111122 
FWRI,ioos:station:FWRI:NPD:2,2013-01-30T04:59:00Z,27.3338,-82.5794,1.0,1111122 
FWRI,ioos:station:FWRI:NPD:2,2013-01-30T05:59:00Z,27.3338,-82.5794,1.1,1111122 
FWRI,ioos:station:FWRI:NPD:2,2013-01-30T06:59:00Z,27.3338,-82.5794,1.0,1111122 
FWRI,ioos:station:FWRI:NPD:2,2013-01-30T07:59:00Z,27.3338,-82.5794,0.9,1111122 
FWRI,ioos:station:FWRI:NPD:2,2013-01-30T08:59:00Z,27.3338,-82.5794,1.1,1111122 
FWRI,ioos:station:FWRI:NPD:2,2013-01-30T09:59:00Z,27.3338,-82.5794,1.1,1111122 
FWRI,ioos:station:FWRI:NPD:2,2013-01-30T10:59:00Z,27.3338,-82.5794,1.7,1111122 
FWRI,ioos:station:FWRI:NPD:2,2013-01-30T11:59:00Z,27.3338,-82.5794,1.9,1111122 
FWRI,ioos:station:FWRI:NPD:2,2013-01-30T12:59:00Z,27.3338,-82.5794,1.6,1111122 
FWRI,ioos:station:FWRI:NPD:2,2013-01-30T13:59:00Z,27.3338,-82.5794,2.2,1111122 
FWRI,ioos:station:FWRI:NPD:2,2013-01-30T14:59:00Z,27.3338,-82.5794,2.0,1111122 
FWRI,ioos:station:FWRI:NPD:2,2013-01-30T15:59:00Z,27.3338,-82.5794,2.5,1111122 
FWRI,ioos:station:FWRI:NPD:2,2013-01-30T16:59:00Z,27.3338,-82.5794,3.8,1111122 
FWRI,ioos:station:FWRI:NPD:2,2013-01-30T17:59:00Z,27.3338,-82.5794,4.0,1111122 
FWRI,ioos:station:FWRI:NPD:2,2013-01-30T18:59:00Z,27.3338,-82.5794,3.8,1111122 
FWRI,ioos:station:FWRI:NPD:2,2013-01-30T19:59:00Z,27.3338,-82.5794,4.3,1111122 
FWRI,ioos:station:FWRI:NPD:2,2013-01-30T20:59:00Z,27.3338,-82.5794,3.9,1111122 
FWRI,ioos:station:FWRI:NPD:2,2013-01-30T21:59:00Z,27.3338,-82.5794,3.2,1111122 
FWRI,ioos:station:FWRI:NPD:2,2013-01-30T22:59:00Z,27.3338,-82.5794,2.9,1111122 
FWRI,ioos:station:FWRI:NPD:2,2013-01-30T23:59:00Z,27.3338,-82.5794,2.7,1111122 
FWRI,ioos:station:FWRI:NPD:2,2013-01-31T00:59:00Z,27.3338,-82.5794,2.6,1111122 
FWRI,ioos:station:FWRI:NPD:2,2013-01-31T01:59:00Z,27.3338,-82.5794,3.6,1111122 
FWRI,ioos:station:FWRI:NPD:2,2013-01-31T02:59:00Z,27.3338,-82.5794,3.7,1111122 
FWRI,ioos:station:FWRI:NPD:2,2013-01-31T03:59:00Z,27.3338,-82.5794,5.3,1111122 
FWRI,ioos:station:FWRI:NPD:2,2013-01-31T04:59:00Z,27.3338,-82.5794,6.2,1111122 
FWRI,ioos:station:FWRI:NPD:2,2013-01-31T05:59:00Z,27.3338,-82.5794,5.2,1111122 
FWRI,ioos:station:FWRI:NPD:2,2013-01-31T06:59:00Z,27.3338,-82.5794,6.8,1111122 
FWRI,ioos:station:FWRI:NPD:2,2013-01-31T07:59:00Z,27.3338,-82.5794,8.1,1111122 
FWRI,ioos:station:FWRI:NPD:2,2013-01-31T08:59:00Z,27.3338,-82.5794,23.0,1111122 
FWRI,ioos:station:FWRI:NPD:2,2013-01-31T09:59:00Z,27.3338,-82.5794,13.0,1111122 
FWRI,ioos:station:FWRI:NPD:2,2013-01-31T10:59:00Z,27.3338,-82.5794,14.6,1111122 
FWRI,ioos:station:FWRI:NPD:2,2013-01-31T11:59:00Z,27.3338,-82.5794,7.5,1111122 
FWRI,ioos:station:FWRI:NPD:2,2013-01-31T12:59:00Z,27.3338,-82.5794,6.8,1111122 
FWRI,ioos:station:FWRI:NPD:2,2013-01-31T13:59:00Z,27.3338,-82.5794,4.8,1111122 